Flag for Moldova Weather past 2 weeks in Tiraspol, Moldova

Now
86 °F

Passing clouds.


Feels Like: 83 °F
Forecast: 62 / 95 °F
Wind: 6 mph from Southeast

Location: Chisinau International Airport

Current Time: Jul 31, 2014 at 8:23:30 PM

Latest Report: Jul 31, 2014 at 8:00 PM


Visibility: N/A

Pressure: 29.80 "Hg

Humidity: 27%

Dew point: 48 °F

Location of TiraspolLocation

Historic Weather in Tiraspol — Graph

°F

Tiraspol temperature yesterday

Maximum temperature yesterday: 90 °F (at 3:00 PM)
Minimum temperature yesterday: 57 °F (at 6:00 AM)
Average temperature yesterday: 76 °F

Past Weeks' High & Low Weather Summary

 TemperatureHumidityPressure
High91 °F (Jul 28, 3:00 PM)88% (Jul 18, 11:30 PM)30.07 "Hg (Jul 18, 11:30 PM)
Low55 °F (Jul 29, 6:00 AM)15% (Jul 31, 2:30 PM)29.77 "Hg (Jul 21, 4:30 PM)
Average75 °F58%29.89 "Hg
* Reported Jul 16 7:00 PM — Jul 31 7:00 PM, Tiraspol, Weather by CustomWeather, © 2014

Note: Actual official high and low records may vary slightly from our data, if they occured in-between our weather recording intervals... More about our weather records

Advertising

Tiraspol weather history for previous 24 hours

 ConditionsComfort  
Time TempWeatherWind HumidityBarometerVisibility
7:00 PM
Jul 31
90 °FPassing clouds.9 mph21%29.80 "HgN/A
6:30 PM90 °FScattered clouds.7 mph22%29.80 "HgN/A
6:00 PM90 °FScattered clouds.12 mph20%29.80 "HgN/A
5:30 PM90 °FScattered clouds.10 mph21%29.80 "HgN/A
5:00 PM91 °FScattered clouds.9 mph17%29.83 "HgN/A
4:30 PM91 °FScattered clouds.9 mph17%29.83 "HgN/A
4:00 PM91 °FScattered clouds.9 mph17%29.83 "HgN/A
3:30 PM91 °FScattered clouds.10 mph15%29.83 "HgN/A
3:00 PM91 °FScattered clouds.14 mph16%29.83 "HgN/A
2:30 PM91 °FScattered clouds.10 mph15%29.86 "HgN/A
2:00 PM91 °FScattered clouds.13 mph16%29.86 "HgN/A
1:30 PM90 °FScattered clouds.12 mph20%29.86 "HgN/A
1:00 PM90 °FScattered clouds.9 mph20%29.86 "HgN/A
12:30 PM90 °FPassing clouds.12 mph21%29.86 "HgN/A
12:00 PM88 °FPassing clouds.7 mph21%29.86 "HgN/A
11:30 AM88 °FPassing clouds.7 mph24%29.89 "HgN/A
11:00 AM86 °FPassing clouds.7 mph27%29.89 "HgN/A
10:30 AM82 °FPassing clouds.5 mph37%29.89 "HgN/A
10:00 AM79 °FSunny.2 mph42%29.89 "Hg10 mi
9:30 AM77 °FSunny.2 mph44%29.89 "Hg10 mi
9:00 AM75 °FSunny.No wind50%29.89 "Hg10 mi
8:30 AM70 °FSunny.No wind57%29.89 "Hg10 mi
8:00 AM68 °FClear.No wind64%29.89 "Hg5 mi
7:30 AM63 °FClear.No wind77%29.89 "Hg5 mi
7:00 AM59 °FClear.No wind82%29.89 "Hg5 mi
6:30 AM59 °FClear.No wind77%29.89 "Hg10 mi
6:00 AM61 °FClear.No wind72%29.89 "Hg10 mi
5:30 AM59 °FClear.No wind77%29.89 "Hg10 mi
5:00 AM59 °FClear.No wind77%29.89 "Hg10 mi
4:30 AM59 °FClear.2 mph77%29.89 "Hg10 mi
4:00 AM61 °FClear.2 mph72%29.89 "Hg10 mi
3:30 AM59 °FClear.3 mph77%29.89 "Hg10 mi
3:00 AM61 °FClear.3 mph72%29.89 "Hg10 mi
2:30 AM63 °FClear.No wind68%29.89 "Hg10 mi
2:00 AM64 °FClear.No wind60%29.89 "Hg10 mi
1:30 AM66 °FClear.3 mph52%29.89 "Hg10 mi
1:00 AM68 °FClear.5 mph49%29.89 "Hg10 mi
12:30 AM70 °FClear.2 mph43%29.89 "Hg10 mi
12:00 AM73 °FClear.6 mph36%29.89 "Hg10 mi
11:30 PM
Jul 30
73 °FClear.5 mph36%29.89 "Hg10 mi
11:00 PM73 °FPassing clouds.3 mph33%29.89 "HgN/A
10:30 PM75 °FClear.7 mph31%29.89 "Hg10 mi
10:00 PM77 °FClear.6 mph32%29.89 "Hg10 mi
9:30 PM79 °FSunny.7 mph28%29.89 "Hg10 mi
9:00 PM81 °FSunny.6 mph26%29.89 "Hg10 mi
8:30 PM82 °FSunny.7 mph25%29.89 "Hg10 mi
8:00 PM86 °FSunny.7 mph22%29.89 "Hg10 mi
Weather by CustomWeather, © 2014

See weather overviewHow to use our weather pages